COSMOS 1275 DEB, 17632

Orbit data source: Space-Track

COSMOS 1275 DEB, 17632 is space debris in LEO originally from a launch on Thu, 04 Jun 1981 UTC launched from the Plesetsk Missile And Space Complex (PKMTR). Debris objects in space refer to the collection of defunct objects orbiting the Earth. Examples of debris include non-operational satellites, rocket bodies, and fragments generated from explosions, collisions, or faulty payload assembly.

Loading next visibility...
Identifier
17632, 1981-053LB
Orbit
LEO
Country
Flag of CISCIS
Related business
Manufacturer
Unknown
Mission
Spacecraft
Bus & Motor
Unknown
Mass
Unknown
Launch date (UTC)
1981-06-04 (45 years ago)
Launch vehicle
Unknown
Launch site
Plesetsk Missile And Space Complex (PKMTR)
Object type
Payload
Rocket body
Debris
Shape & HBR
Unknown shape, 0.1 m
Radar Cross Section
Small (<0.1 m²)

Expand to show TLE details & history
Last TLE update: 13 hours ago

TLE from 13 hours ago
0 COSMOS 1275 DEB
1 17632U 81053LB  25349.75138036  .00001327  00000-0  15671-2 0  9997
2 17632  83.0843 336.6148 0145567  16.2986 161.6144 13.62787903 10693
Epoch: 2025-12-15T18:01Z
TLE epoch observation values (Epoch: 2025-12-15T18:01:59.263Z)
Latitude
1.45354°
Longitude
161.29698°
Altitude
1,130.733 km
Speed
7.237 km/s
True Right ascension
10h 25m 45s
True Declination
1° 26' 43"
Sunlit
Object was in daylight at epoch
Visualization orbit readout
Latitude
Unknown
Longitude
Unknown
Altitude
Unknown
Speed
Unknown
Apparent Right ascension
Unknown
Apparent Declination
Unknown
Sunlit
N/A
Visualization observer readout
Local Sidereal Time
05:17:14
Azimuth
Unknown
Elevation
Unknown
Doppler factor
Unknown
Orbital elements
Apogee altitude
1,130.469 km
Perigee altitude
915.005 km
Semi-major axis
7,400.874 km
Eccentricity
0.01456
Inclination
83.0843°
RAAN
336.6148°
Arg. of periapsis
16.2986°
True anomaly
162.13159°
Mean anomaly
161.6144°
Eccentric anomaly
161.87388°
Mean motion
3.40893 °/min
Orbital period
105.6 mins
BSTAR
0.0015671
Loading maneuver chart data...
Computing Atmospheric mass density...
Loading historical data...
Loading historical data...
Loading historical data...
Loading historical data...
Loading historical data...
Loading historical data...
Loading historical data...

Documentation

Showing up to 5 results
|